User: anonymous   Login
Location: Bullenkuhlen
(53.7689°N, 9.7495°E)
Time: 01:49:14
(UTC+00:00)
Language:

ATLAS CENTAUR R/B - Orbit

View from above orbital plane
View from above orbital plane
View from above satellite
View from above satellite

Ground track
Ground track

The orbit data is extracted from the following two-line orbital elements,

1 38770U 12048N   20188.89236995 0.00000300  00000-0  20478-4 0    01
2 38770  64.6536 100.0505 0143390 136.0271 223.9729 14.97865877    04
Epoch (UTC): 06 July 2020 21:25:00
Eccentricity: 0.0143390
inclination: 64.6536°
perigee height: 474 km
apogee height: 673 km
right ascension of ascending node: 100.0505°
argument of perigee: 136.0271°
revolutions per day: 14.97865877
mean anomaly at epoch: 223.9729°
orbit number at epoch: 0

The dashed part of the orbit path shows where the satellite is in the earth's shadow,  

DLR